Simultaneous Nadir Overpasses (SNOs) Predictions

Prediction of SNOs between NOAA-19 and METOP-C Satellite Orbit:

Table of predicted SNOs for the next 14.0 days since TLE Epoch: 7/10/2020
Index Date (NOAA-19) Time (NOAA-19) Lat,Lon (NOAA-19) SZA (NOAA-19 ) Date (METOP-C) Time (METOP-C) Lat,Lon (METOP-C) SZA (METOP-C ) Distance(km) Time Diff (sec)
1 07/19/2020 15:55:52 -80.12, 143.33 119.92 07/19/2020 15:57:06 -80.07, 143.97 119.90 13.45 74
2 07/19/2020 16:46:45 80.08, -48.75 60.10 07/19/2020 16:47:47 80.06, -48.83 60.09 2.69 62
3 07/19/2020 17:37:50 -80.07, 118.64 119.90 07/19/2020 17:38:28 -80.06, 118.50 119.91 2.92 38
4 07/19/2020 18:28:45 80.07, -74.07 60.11 07/19/2020 18:29:08 80.08, -74.00 60.13 1.78 23
5 07/19/2020 19:19:50 -80.05, 93.32 119.89 07/19/2020 19:19:49 -80.08, 93.33 119.87 2.45 1
6 07/19/2020 20:10:45 80.05, -99.39 60.12 07/19/2020 20:10:30 80.06, -99.46 60.12 1.89 15
7 07/19/2020 21:01:51 -80.06, 67.68 119.87 07/19/2020 21:01:11 -80.06, 67.87 119.87 3.52 40
8 07/19/2020 21:52:46 80.06,-125.03 60.14 07/19/2020 21:51:52 80.05,-124.93 60.12 2.24 54
